Wind_Speed
30 31 31 31 31 31 28 26 26 26 26 25 25 25 25 26 26 26 25 22 22 22 22 22 22 22 21 21 21 21 21 21 21 21 20 20 20 19 19 19 19 19 19 19 19 18 18 18 18
30 31 32 32 32 30 28 27 28 28 27 26 26 26 27 27 27 26 25 24 24 23 23 22 22 22 21 21 21 22 22 22 22 22 22 22 21 21 21 21 21 21 21 20 20 20 19 19 20
31 32 32 33 32 30 28 28 29 28 27 27 27 28 28 27 26 26 25 25 24 23 23 23 23 22 22 22 22 22 22 22 23 23 23 23 22 22 22 22 22 22 22 22 22 21 21 21 21
32 33 33 33 32 29 29 30 29 28 28 28 28 28 28 26 25 26 26 25 24 24 23 23 23 23 23 23 23 23 23 23 23 23 23 23 23 23 23 23 24 24 24 24 24 23 23 23 23
33 33 34 33 31 30 30 31 30 29 29 29 29 29 28 27 27 27 27 26 25 24 24 24 24 24 24 24 24 25 25 24 24 24 24 24 24 24 25 25 25 25 25 25 25 25 25 25 25
34 34 34 32 31 30 30 31 31 30 30 30 30 30 28 28 28 28 28 27 26 25 26 26 25 25 25 25 25 25 25 25 25 25 25 25 25 26 26 26 27 27 26 26 26 26 26 26 26
34 34 34 32 31 30 30 30 30 29 30 30 30 30 29 29 29 29 29 28 27 27 26 26 26 26 26 26 26 26 25 25 26 26 26 26 26 26 26 26 27 27 27 27 27 28 28 28 28
34 34 33 32 31 31 31 30 30 30 30 31 31 30 29 28 29 29 29 29 28 28 27 27 27 27 27 27 27 27 27 27 27 27 28 28 28 28 27 27 28 28 28 29 29 29 30 30 30
34 34 31 30 31 31 32 31 31 31 31 31 31 30 29 28 29 29 29 29 29 29 28 28 28 28 29 29 28 28 28 28 28 28 28 28 28 29 29 29 29 29 30 30 31 31 31 32 32
34 34 31 31 32 32 32 32 32 31 31 31 31 31 31 29 30 30 30 30 29 29 29 29 29 29 29 29 29 29 28 28 28 28 28 28 29 29 29 29 30 30 31 32 32 32 33 33 34
35 33 32 32 32 32 32 32 32 32 32 32 31 31 32 31 30 30 30 30 29 29 29 29 29 29 29 29 29 29 29 29 28 28 28 28 29 29 29 29 30 31 31 32 33 34 35 35 36
36 34 33 33 33 32 32 32 33 33 32 32 32 33 32 31 31 30 30 30 29 29 29 29 29 29 28 29 29 28 28 29 29 29 29 29 29 29 30 30 31 32 32 33 35 36 37 38 38
37 35 35 35 34 34 33 33 33 33 32 32 32 32 32 32 32 31 31 30 30 29 29 29 29 28 28 28 28 28 28 29 29 29 29 29 30 30 31 31 32 33 33 34 36 37 38 39 40
37 36 36 36 35 35 35 34 34 32 32 33 33 32 32 32 32 31 31 30 30 29 30 29 29 29 28 28 28 28 28 28 29 29 30 31 31 31 32 33 34 35 35 36 37 39 40 41 42
37 37 37 36 35 35 36 36 34 33 34 34 33 33 32 32 32 32 31 31 30 30 30 30 30 29 29 29 29 29 29 30 30 31 32 32 33 33 34 35 36 37 37 38 39 40 42 42 43
38 38 38 36 36 36 37 35 34 34 34 34 33 33 33 32 32 32 32 31 31 31 30 30 30 30 30 29 29 29 30 31 32 32 33 34 35 36 36 37 37 38 39 40 41 42 43 43 43
39 38 37 36 36 37 37 35 34 35 35 34 33 33 33 32 32 32 32 31 31 31 30 30 30 30 30 30 30 30 31 32 32 33 34 35 36 37 37 38 38 39 40 40 41 42 43 43 44
38 38 38 37 37 38 38 37 35 35 35 34 34 33 32 32 32 32 32 31 31 31 30 30 30 30 30 30 30 31 32 33 33 34 35 36 37 38 38 39 39 40 40 41 41 42 43 44 45
39 39 38 38 37 38 39 38 36 36 36 35 34 33 33 32 32 32 31 31 31 30 30 30 30 30 30 31 31 32 33 33 34 35 36 37 37 38 39 40 40 41 41 42 43 44 44 45 46
39 39 39 38 38 38 39 39 37 36 35 35 35 34 33 33 32 31 31 31 31 31 30 30 30 31 31 32 33 33 34 35 35 36 37 37 38 38 39 40 41 42 43 43 44 45 45 46 46
40 39 39 38 38 39 39 39 37 36 36 35 35 34 33 33 32 32 31 32 32 31 31 31 31 32 32 33 34 34 35 36 36 37 38 38 39 39 40 41 42 42 43 44 45 45 46 46 46
40 40 40 39 40 40 39 40 37 36 36 35 34 34 34 34 33 33 32 32 32 32 32 32 33 33 34 34 34 34 35 36 36 37 38 39 39 40 40 41 42 43 44 45 45 46 46 47 47
39 39 40 40 40 41 40 41 38 37 36 35 34 34 34 35 35 34 33 33 33 33 33 34 34 34 34 35 35 35 36 36 36 37 38 38 39 40 40 41 42 43 44 45 46 46 47 48 48
37 38 39 40 41 42 40 41 40 37 36 35 35 34 34 34 35 35 34 34 34 34 34 34 35 35 35 35 36 36 36 37 37 37 38 38 39 40 41 41 42 43 44 45 46 47 48 48 49
38 38 38 39 41 42 39 41 41 37 36 35 35 34 35 35 35 35 34 34 34 34 34 35 35 35 35 35 36 36 37 37 37 38 38 39 39 40 41 42 43 43 44 45 45 46 46 47 47
39 38 38 38 39 39 39 41 40 37 36 35 35 35 35 35 34 34 35 34 34 34 34 35 35 35 35 36 36 36 36 37 38 39 39 40 41 41 42 43 43 43 43 43 44 44 45 46 47
37 38 37 37 39 39 39 40 39 38 36 35 35 35 35 35 34 35 35 35 35 34 34 34 35 35 35 35 36 36 37 38 38 39 40 41 42 42 43 42 42 42 43 44 45 46 46 47 47
38 37 36 37 37 38 39 38 38 37 35 34 34 35 34 34 35 35 34 35 35 35 34 35 35 35 35 35 36 36 37 38 39 40 41 41 41 41 41 41 42 43 43 44 45 46 47 47 48
38 38 38 37 37 37 37 37 37 36 35 34 34 35 34 33 34 34 34 34 35 35 35 35 36 36 36 36 36 37 38 39 40 40 41 41 40 41 41 41 42 42 43 44 46 46 47 47 48
35 36 37 37 37 36 36 35 33 33 33 33 33 33 33 33 33 33 33 34 34 35 35 36 36 36 36 37 38 38 39 39 40 40 40 40 41 41 42 42 42 43 44 45 45 46 47 48 48
Wind_Direction
238 238 238 239 239 240 241 241 241 240 241 242 243 244 245 246 248 252 253 251 251 251 252 253 253 253 254 253 254 255 256 257 259 259 259 259 259 259 261 262 264 266 268 268 269 269 271 273 273
238 237 238 239 239 241 241 242 242 242 241 242 243 243 244 246 248 251 253 251 251 251 251 252 252 252 253 253 254 255 257 258 259 260 260 260 261 261 261 262 264 266 267 268 268 269 270 272 272
238 238 238 239 240 241 242 242 242 242 241 241 242 243 244 246 248 250 250 250 249 249 250 251 251 252 253 254 255 256 257 258 259 260 260 261 262 262 262 262 263 265 266 267 268 269 270 271 273
238 238 239 239 240 241 242 243 242 243 241 242 242 243 244 245 245 247 248 248 248 249 250 251 252 252 253 255 256 257 258 259 259 260 261 262 263 263 263 264 264 264 265 267 268 269 269 271 272
237 238 239 240 240 240 241 243 243 242 242 242 242 242 243 243 244 245 247 248 249 250 250 251 252 253 253 255 256 257 258 258 259 260 261 262 263 264 265 266 266 266 266 266 267 268 269 270 272
238 238 239 240 239 239 240 241 242 241 241 240 242 242 242 243 244 246 248 249 250 250 252 252 253 253 254 255 256 258 258 259 260 261 262 263 264 265 266 266 267 267 267 267 267 268 269 270 272
238 238 238 238 237 237 238 239 240 239 240 241 242 243 242 244 245 246 248 249 250 251 252 253 253 254 255 256 257 258 258 260 262 263 263 264 265 266 267 267 267 266 266 266 267 268 270 271 271
237 237 236 237 237 237 237 237 238 238 239 241 242 243 243 243 245 246 248 249 250 251 252 254 254 255 256 257 258 258 260 262 263 264 265 265 266 266 267 267 267 267 267 267 268 269 270 271 272
235 236 235 236 237 236 236 237 237 239 240 241 242 244 244 244 246 247 248 250 251 252 253 254 255 256 257 258 259 260 262 263 264 265 266 266 267 267 268 268 268 269 269 269 270 270 271 271 272
236 237 236 236 236 237 237 237 237 239 240 241 242 243 244 244 246 248 249 250 251 252 253 255 257 257 257 258 259 260 262 263 264 265 266 267 268 268 268 268 269 270 271 271 271 271 271 272 272
236 238 237 237 237 238 238 238 238 239 240 242 242 243 244 245 247 249 250 252 253 253 254 256 257 258 258 258 258 259 261 263 264 265 266 267 268 268 269 270 271 271 272 272 272 273 273 273 273
237 237 237 238 237 238 238 239 239 240 241 242 243 243 244 246 247 249 250 252 253 254 255 256 258 259 259 258 258 260 262 263 264 265 266 267 267 269 270 271 273 273 274 274 274 274 274 274 274
237 237 237 238 238 238 238 239 239 240 241 243 244 245 245 247 248 250 251 252 253 254 255 256 257 257 258 259 260 261 262 263 264 266 267 268 269 270 270 271 273 274 275 275 276 276 276 276 275
238 238 237 238 239 239 239 239 240 240 242 243 244 245 246 247 249 250 251 252 253 254 255 256 256 256 257 259 261 263 263 263 265 267 268 269 270 271 272 273 275 275 276 277 278 278 278 277 277
239 238 238 239 240 240 241 240 240 241 242 243 244 246 247 248 249 250 251 252 254 255 255 255 255 256 258 261 262 263 263 265 266 267 268 270 271 272 273 274 275 277 278 278 279 280 280 279 278
238 239 239 239 240 241 241 241 240 240 242 244 245 246 247 248 248 250 251 253 254 255 255 255 256 257 258 260 262 263 264 266 268 269 270 272 273 274 275 276 277 278 279 280 281 281 281 280 278
238 240 241 240 239 240 241 241 241 241 241 243 245 246 247 248 249 250 252 253 254 255 254 255 257 257 259 261 263 264 266 268 269 270 271 272 273 274 276 277 278 279 281 282 282 282 282 281 279
240 240 241 241 240 241 241 241 241 241 241 242 244 246 247 249 250 251 251 252 253 254 255 257 258 259 260 262 264 266 268 269 270 272 272 273 274 275 276 278 279 280 282 283 284 284 283 282 281
239 240 240 241 241 242 242 242 242 242 243 243 245 247 248 249 249 250 252 253 253 254 256 258 258 259 261 263 265 267 269 271 272 273 274 274 275 276 277 278 280 282 283 283 284 285 285 284 283
238 239 240 241 241 242 242 242 242 242 243 244 245 246 247 248 249 250 252 253 254 255 257 259 259 261 263 265 267 269 270 271 273 274 275 276 276 277 278 279 281 282 284 285 286 286 286 286 285
238 239 239 241 241 242 244 242 241 242 243 244 245 246 247 248 250 251 253 255 256 257 258 260 261 263 266 268 270 271 272 273 273 274 275 276 277 279 280 281 282 283 285 287 287 287 288 287 286
238 238 240 240 241 242 243 244 240 242 243 244 245 246 248 249 251 253 255 256 258 259 260 261 263 266 269 271 272 273 274 274 275 275 277 277 278 280 281 283 284 284 286 288 288 288 288 288 287
239 239 240 240 242 242 242 245 241 242 244 245 246 247 249 250 251 254 256 257 258 260 262 263 265 268 270 272 273 274 275 276 276 277 278 279 280 281 282 283 284 285 287 288 288 288 288 288 288
238 239 240 241 242 242 241 246 244 242 245 246 247 248 250 251 252 254 256 258 259 261 263 265 267 269 270 272 274 275 276 276 277 278 279 280 281 282 282 283 284 285 287 288 288 288 288 289 288
237 238 240 241 242 244 243 246 247 245 246 247 248 249 250 252 253 254 256 258 260 262 264 265 267 269 271 273 274 275 276 276 277 279 280 281 282 282 283 284 284 285 287 289 289 290 290 290 289
237 238 240 242 244 245 245 247 247 247 247 247 248 249 251 252 254 255 256 258 260 263 264 266 268 270 272 273 274 275 276 276 278 279 281 282 283 283 284 285 285 285 287 289 290 291 291 291 290
235 237 239 242 244 246 246 247 247 247 248 249 250 250 251 252 254 256 257 258 261 263 264 266 268 270 272 273 274 275 276 277 279 280 282 282 283 284 285 286 286 286 287 289 290 292 292 293 292
235 236 236 238 241 244 246 247 248 249 250 251 251 251 252 253 255 256 258 259 260 262 264 266 267 270 272 273 274 275 276 278 280 281 282 283 284 284 285 286 287 287 288 289 291 293 294 294 294
234 234 236 238 241 243 247 248 249 250 251 251 251 252 253 254 255 257 258 259 260 261 263 265 267 269 271 273 274 275 277 279 281 282 283 283 284 284 286 287 287 288 289 290 292 293 294 294 294
234 234 235 236 239 242 245 246 246 248 249 250 251 252 252 254 255 256 257 258 260 262 264 265 267 268 270 272 274 275 277 279 281 283 283 283 284 285 287 287 288 288 290 291 292 293 294 295 295
Height
5793 5795 5797 5800 5802 5804 5807 5811 5812 5813 5816 5818 5820 5822 5824 5825 5827 5830 5831 5832 5834 5835 5836 5838 5839 5840 5841 5843 5844 5845 5846 5847 5847 5848 5849 5850 5851 5852 5852 5853 5854 5854 5854 5855 5855 5855 5855 5855 5855
5788 5790 5792 5794 5796 5799 5803 5806 5807 5809 5811 5814 5816 5817 5819 5820 5822 5824 5826 5828 5830 5832 5833 5834 5835 5837 5838 5839 5840 5841 5842 5843 5844 5845 5846 5846 5847 5848 5849 5850 5850 5851 5851 5851 5852 5852 5852 5852 5852
5782 5784 5787 5789 5792 5795 5799 5800 5801 5804 5807 5809 5811 5813 5814 5817 5819 5820 5821 5823 5825 5827 5829 5830 5832 5833 5834 5836 5837 5838 5839 5839 5840 5841 5842 5843 5843 5844 5845 5846 5846 5847 5847 5848 5848 5848 5849 5849 5849
5776 5779 5781 5785 5787 5791 5793 5794 5796 5799 5802 5804 5806 5808 5810 5813 5815 5816 5817 5819 5821 5823 5825 5826 5827 5829 5830 5832 5833 5834 5835 5836 5836 5837 5838 5839 5839 5840 5841 5842 5842 5843 5843 5844 5844 5844 5845 5845 5845
5770 5773 5776 5779 5782 5786 5787 5788 5791 5794 5797 5799 5801 5803 5806 5808 5810 5811 5813 5815 5817 5819 5821 5822 5823 5825 5826 5827 5828 5830 5831 5831 5832 5833 5834 5835 5835 5836 5836 5837 5838 5838 5839 5839 5839 5840 5840 5840 5840
5765 5767 5770 5773 5777 5780 5782 5784 5785 5789 5791 5793 5795 5798 5801 5803 5805 5807 5808 5810 5813 5815 5816 5817 5819 5820 5821 5823 5824 5825 5826 5827 5828 5829 5829 5830 5831 5831 5832 5832 5833 5833 5834 5834 5834 5835 5835 5836 5836
5760 5761 5764 5768 5771 5774 5776 5778 5780 5783 5785 5788 5790 5793 5795 5798 5800 5802 5803 5805 5808 5810 5811 5813 5814 5815 5817 5818 5819 5820 5821 5822 5823 5824 5825 5825 5826 5826 5826 5827 5827 5828 5828 5829 5829 5830 5830 5830 5830
5752 5756 5759 5762 5765 5768 5770 5772 5775 5777 5780 5782 5785 5788 5790 5793 5795 5797 5798 5800 5803 5805 5806 5808 5809 5810 5812 5813 5814 5815 5816 5817 5818 5819 5819 5820 5820 5821 5821 5821 5822 5822 5823 5823 5824 5824 5824 5824 5825
5745 5750 5754 5757 5759 5762 5764 5767 5769 5772 5774 5777 5780 5783 5786 5788 5789 5791 5793 5795 5797 5799 5801 5803 5804 5805 5806 5808 5809 5810 5811 5812 5812 5813 5814 5814 5815 5815 5815 5816 5816 5816 5817 5817 5817 5818 5818 5818 5818
5739 5744 5749 5751 5752 5755 5758 5761 5764 5766 5769 5771 5774 5777 5779 5782 5784 5786 5788 5790 5792 5794 5795 5797 5798 5800 5801 5802 5803 5804 5805 5806 5807 5807 5808 5808 5809 5809 5809 5810 5810 5810 5810 5810 5811 5811 5811 5811 5811
5733 5738 5742 5744 5746 5749 5752 5755 5758 5760 5763 5766 5769 5771 5773 5776 5778 5780 5782 5784 5786 5788 5790 5791 5792 5794 5795 5796 5797 5798 5799 5800 5800 5801 5802 5802 5802 5803 5803 5803 5804 5804 5804 5804 5804 5804 5804 5804 5804
5727 5731 5734 5737 5740 5743 5746 5749 5752 5754 5757 5760 5762 5765 5768 5770 5772 5774 5777 5778 5780 5782 5784 5785 5786 5788 5789 5790 5791 5792 5793 5794 5794 5795 5795 5796 5796 5796 5797 5797 5797 5797 5797 5797 5797 5797 5796 5796 5796
5719 5724 5727 5730 5733 5736 5739 5742 5745 5748 5751 5753 5756 5759 5762 5764 5766 5768 5770 5773 5774 5776 5778 5779 5781 5782 5783 5784 5785 5786 5787 5787 5788 5788 5789 5789 5790 5790 5790 5790 5790 5790 5790 5789 5789 5789 5788 5788 5787
5712 5716 5719 5723 5726 5729 5732 5735 5738 5743 5745 5747 5749 5752 5755 5757 5760 5762 5764 5766 5768 5770 5771 5773 5774 5776 5777 5778 5779 5780 5780 5781 5782 5782 5782 5782 5783 5783 5783 5783 5783 5782 5782 5782 5781 5780 5779 5779 5778
5704 5708 5712 5716 5719 5723 5725 5729 5733 5737 5738 5740 5743 5746 5748 5751 5753 5756 5758 5760 5762 5764 5765 5766 5768 5769 5771 5771 5772 5773 5774 5775 5775 5775 5775 5775 5775 5775 5775 5775 5775 5774 5774 5773 5772 5771 5770 5769 5768
5696 5700 5704 5710 5712 5715 5719 5722 5727 5729 5731 5734 5737 5739 5742 5744 5747 5749 5751 5753 5755 5757 5759 5760 5761 5762 5764 5765 5766 5766 5767 5767 5768 5768 5768 5768 5767 5767 5767 5767 5766 5765 5765 5764 5763 5762 5760 5759 5758
5688 5692 5697 5702 5704 5707 5710 5715 5719 5721 5724 5727 5730 5732 5735 5737 5740 5742 5744 5746 5748 5750 5752 5753 5754 5756 5757 5758 5759 5760 5760 5760 5760 5760 5760 5759 5759 5759 5758 5758 5757 5756 5755 5754 5753 5752 5750 5749 5748
5682 5685 5689 5693 5696 5699 5702 5707 5711 5714 5717 5720 5723 5725 5728 5731 5733 5735 5737 5739 5741 5743 5745 5746 5748 5749 5750 5751 5751 5752 5752 5752 5752 5752 5752 5751 5750 5750 5749 5749 5748 5747 5746 5744 5743 5741 5740 5738 5736
5673 5677 5680 5684 5687 5691 5694 5699 5703 5706 5709 5713 5716 5719 5721 5724 5726 5728 5730 5732 5734 5736 5738 5739 5741 5742 5743 5743 5744 5744 5744 5744 5744 5743 5743 5742 5741 5741 5740 5739 5738 5737 5736 5734 5732 5730 5728 5726 5724
5665 5668 5672 5676 5679 5682 5686 5690 5695 5699 5702 5706 5709 5711 5714 5717 5719 5721 5724 5726 5727 5729 5731 5732 5733 5734 5735 5735 5736 5736 5736 5735 5735 5734 5734 5733 5732 5731 5731 5730 5728 5727 5725 5724 5721 5719 5716 5714 5711
5656 5661 5665 5668 5671 5674 5678 5682 5687 5691 5694 5698 5701 5704 5707 5710 5712 5715 5717 5719 5720 5722 5724 5725 5726 5726 5727 5727 5727 5727 5726 5726 5726 5725 5724 5724 5723 5722 5721 5720 5718 5717 5715 5712 5709 5706 5704 5702 5699
5648 5653 5656 5659 5662 5666 5670 5673 5680 5683 5687 5690 5694 5697 5700 5703 5705 5708 5710 5712 5713 5715 5716 5717 5718 5718 5718 5718 5718 5718 5717 5717 5716 5715 5715 5714 5713 5712 5711 5709 5708 5706 5704 5701 5698 5695 5692 5689 5687
5640 5644 5648 5651 5654 5657 5662 5664 5672 5675 5679 5683 5687 5690 5693 5695 5697 5700 5702 5704 5706 5707 5708 5709 5710 5710 5710 5709 5709 5708 5708 5707 5706 5706 5705 5704 5703 5702 5700 5699 5697 5695 5693 5689 5686 5683 5680 5677 5675
5632 5636 5639 5642 5644 5649 5655 5656 5661 5668 5672 5676 5679 5682 5685 5687 5690 5692 5694 5696 5698 5699 5700 5701 5701 5701 5701 5700 5700 5699 5698 5697 5697 5696 5695 5694 5693 5692 5690 5689 5687 5684 5682 5678 5675 5672 5669 5666 5662
5624 5628 5631 5633 5636 5641 5647 5648 5653 5660 5664 5667 5671 5674 5676 5679 5681 5684 5686 5688 5690 5691 5692 5692 5693 5692 5692 5691 5690 5689 5688 5688 5687 5687 5685 5684 5683 5682 5680 5678 5676 5674 5671 5667 5664 5660 5657 5654 5650
5616 5620 5625 5628 5630 5635 5638 5640 5647 5652 5655 5658 5662 5665 5668 5670 5673 5675 5678 5680 5681 5683 5683 5684 5684 5684 5683 5682 5681 5680 5679 5678 5678 5677 5675 5674 5673 5671 5669 5667 5665 5663 5660 5657 5653 5650 5646 5643 5639
5607 5612 5617 5620 5622 5626 5629 5633 5638 5642 5646 5650 5654 5657 5659 5662 5665 5667 5669 5671 5672 5674 5675 5675 5675 5675 5674 5673 5672 5671 5670 5669 5668 5667 5665 5664 5662 5660 5658 5656 5654 5652 5649 5647 5643 5640 5636 5632 5628
5600 5605 5609 5611 5614 5617 5622 5626 5630 5635 5638 5642 5645 5648 5651 5654 5656 5658 5660 5662 5664 5665 5666 5666 5666 5666 5665 5664 5663 5662 5661 5660 5658 5657 5655 5653 5651 5649 5647 5645 5643 5641 5638 5636 5632 5629 5625 5621 5617
5592 5596 5600 5604 5607 5611 5614 5621 5623 5627 5630 5634 5636 5639 5642 5645 5647 5649 5651 5653 5654 5655 5656 5657 5657 5657 5656 5655 5654 5653 5652 5650 5649 5647 5645 5643 5641 5639 5637 5635 5633 5630 5628 5625 5621 5618 5614 5610 5606
5583 5588 5592 5597 5600 5603 5607 5614 5615 5618 5622 5625 5628 5631 5633 5636 5638 5640 5642 5644 5645 5646 5647 5647 5647 5647 5647 5646 5645 5644 5642 5640 5639 5637 5635 5633 5631 5629 5627 5624 5622 5620 5617 5613 5610 5606 5602 5598 5594